Content
SEND FEEDBACK

Daily
Averages
Monthly
Summary
United States of America

POTTS JUNCTION, GUAM


Home > North America > United States > Guam
Elevation: 110 meters     Latitude: 13 33N     Longitude: 144 50E

WEATHER
 
SELECT A DAY
Number of Records: 209,044;   Date Range: 1/1/95 - 7/29/14
 
SHARE

PRINT THIS DATA

[ ← Previous Day ]
WEATHER ALMANAC - 13 MAY, 2014
[ Next Day → ]
[ °F ]   °C
Weather ElementAverageHighLow
Temperature28.8 °C32.2 °C (10:54 am)26.7 °C (2:54 am)
Dewpoint23.4 °C23.9 °C (1:54 am)22.2 °C (11:54 am)
Humidity73.2 %85 % (2:54 am)55 % (11:54 am)
Barometer1011.5 hPa1012.9 hPa (7:54 am)1009.5 hPa (3:54 pm)
Wind Speed10.3 km/h18.5 km/h (3:54 pm)
Weather ElementAverage
Visibility16.1 km
Wind DirectionE (90.9 °)

Weather ElementTotal
Precipitation---
Cooling Degree Days11.2 (Base 18.3)
Growing Degree Days19.5 (Base 10)
Averaged from 23 records on 13 May, 2014
WEATHER CONDITIONS BREAKOUT
WIND DIRECTION BREAKOUT
WEATHER BY HOUR - 13 MAY, 2014
[ °F ]   °C
Local TimeTemperatureDewpointHumidityBarometerVisibilityWind DirectionWind SpeedGust SpeedPrecipitationEventsConditions
1:54 AM27.2 °C23.9 °C82 %1011.9 hPa16.1 kmEast (90°)7.4 km/hClear
2:54 AM26.7 °C23.9 °C85 %1011.5 hPa16.1 kmEast (80°)5.6 km/hClear
3:54 AM26.7 °C23.9 °C85 %1011.5 hPa16.1 kmESE (110°)5.6 km/hPartly Cloudy
4:54 AM26.7 °C23.9 °C85 %1011.9 hPa16.1 kmCalmPartly Cloudy
5:54 AM26.7 °C23.9 °C85 %1012.2 hPa16.1 kmCalmPartly Cloudy
6:54 AM27.2 °C23.9 °C82 %1012.5 hPa16.1 kmEast (90°)5.6 km/hClear
7:54 AM28.3 °C23.9 °C77 %1012.9 hPa16.1 kmEast (80°)13 km/hPartly Cloudy
8:54 AM30 °C23.3 °C67 %1012.9 hPa16.1 kmENE (70°)11.1 km/hPartly Cloudy
9:54 AM30.6 °C22.8 °C63 %1012.9 hPa16.1 kmENE (60°)13 km/hPartly Cloudy
10:54 AM32.2 °C22.8 °C57 %1012.2 hPa16.1 kmEast (80°)16.7 km/hScattered Clouds
11:54 AM32.2 °C22.2 °C55 %1012.2 hPa16.1 kmEast (100°)9.3 km/hPartly Cloudy
12:54 PM31.1 °C22.8 °C61 %1011.5 hPa16.1 kmNE (40°)7.4 km/hMostly Cloudy
1:54 PM31.7 °C22.8 °C59 %1010.8 hPa16.1 kmNorth (360°)13 km/hMostly Cloudy
2:54 PM31.1 °C23.3 °C63 %1010.2 hPa16.1 kmEast (90°)16.7 km/hScattered Clouds
3:54 PM30.6 °C23.3 °C65 %1009.5 hPa16.1 kmEast (90°)18.5 km/hPartly Cloudy
4:54 PM29.4 °C23.3 °C69 %1009.5 hPa16.1 kmEast (100°)18.5 km/hClear
5:54 PM28.9 °C23.3 °C72 %1009.5 hPa16.1 kmEast (100°)14.8 km/hClear
6:54 PM27.8 °C23.3 °C76 %1010.2 hPa16.1 kmESE (110°)14.8 km/hClear
7:54 PM27.8 °C23.3 °C76 %1010.8 hPa16.1 kmEast (100°)11.1 km/hClear
8:54 PM27.8 °C23.3 °C76 %1011.5 hPa16.1 kmEast (80°)7.4 km/hClear
9:54 PM27.2 °C23.3 °C79 %1012.2 hPa16.1 kmEast (90°)11.1 km/hClear
10:54 PM27.2 °C23.9 °C82 %1011.9 hPa16.1 kmEast (80°)7.4 km/hPartly Cloudy
11:54 PM27.2 °C23.9 °C82 %1011.5 hPa16.1 kmEast (90°)7.4 km/hPartly Cloudy
Hourly data recorded from PGUM, located 0 kilometers away from Potts Junction, Guam







STORIES FROM OUR PARTNERS